Location: Taipo
(41.0000°S, 175.9500°E)
Time: 11:21:36
(UTC+00:00)

Cosmos 2084 Rocket - Pass Details

Date: 18 April 2024
Orbit: 511 x 635 km, 62.8° (Epoch: 24 May)

Event Time Altitude Azimuth Distance (km) Brightness Sun altitude
Exits shadow 16:58:59 64° 312° (NW) 649 3.4 -21.7°
Maximum altitude 16:59:37 84° 236° (SW) 595 3.3 -21.6°
Drops below altitude 10° 17:04:04 10° 146° (SE) 1,962 6.6 -20.7°
Sets 17:06:24 0° 144° (SE) 2,892 7.6 -20.3°
